SCP
0 0 0 -0 0 -0 -0 0 0 0 0 0 -0 0 0 -1 -0 -0 -0 0 0 -0 -0 -0 -0 -0 -0 -0 -0 -0 -0 -0
0 0 0 0 0 0 -0 0 0 0 0 0 -0 0 -0 -1 -1 -0 -0 0 -0 -0 -0 -0 -0 -0 -0 -0 -0 -0 -0 -0
0 0 0 0 0 0 0 0 0 0 0 -0 -0 -0 -1 -1 -1 -0 -0 -0 -0 -0 -0 -0 -0 -0 -0 -0 -0 -0 -0 -0
0 0 0 0 0 0 0 0 0 0 0 0 0 -1 -1 -0 -0 -0 -0 -0 -0 -0 -0 -0 -0 -0 -0 -0 -0 -0 -0 -0
0 0 0 0 0 0 -0 0 0 0 2 0 0 0 -0 -0 -0 -0 -0 -0 0 -0 -0 -0 -0 -0 -0 -0 -0 -0 -0 -0
0 0 0 0 0 0 -0 0 0 0 1 1 0 0 0 0 -0 0 0 0 0 0 0 0 0 -0 -0 -0 -0 -0 -0 -0
0 0 0 0 0 0 -0 0 0 0 1 1 0 0 0 0 0 0 0 0 0 0 0 0 0 -0 -0 -0 -0 -0 -0 -0
0 0 0 0 0 0 -0 0 0 1 1 1 1 0 0 0 1 0 0 0 0 0 0 0 0 0 0 0 0 0 0 0
0 0 0 0 0 -0 -0 -0 0 0 3 1 1 1 0 0 0 0 0 0 0 0 0 0 0 0 0 0 0 0 0 0
0 0 0 0 0 -0 -0 0 0 0 1 3 3 2 1 0 0 0 0 0 0 0 0 0 1 0 0 0 0 0 0 0
0 0 0 0 0 0 -0 0 0 0 0 0 2 3 2 1 1 0 0 0 0 0 0 0 0 0 0 0 0 0 0 0
0 0 0 0 0 0 0 0 0 0 0 0 0 0 1 2 1 1 0 0 0 0 0 0 0 0 0 0 0 0 0 0
0 0 0 0 0 0 0 0 0 0 0 0 0 0 0 0 0 2 1 1 1 0 0 1 0 0 0 0 0 0 0 0
0 0 0 0 0 0 0 0 0 0 0 0 0 0 0 0 0 1 2 2 2 0 0 0 2 0 0 0 0 0 0 0
0 0 0 0 0 0 0 0 0 0 0 0 0 0 0 0 0 1 4 3 3 2 1 1 2 1 1 0 1 0 1 0
0 0 0 0 0 0 0 0 0 0 0 0 0 0 0 0 0 1 4 5 5 4 1 1 3 3 2 1 1 1 1 2
0 0 0 0 0 0 0 0 0 0 0 0 0 0 0 0 0 1 5 4 0 0 3 4 4 3 2 1 2 2 1 2
0 0 0 0 0 0 0 0 0 0 0 0 0 0 0 0 0 1 5 6 3 2 3 3 3 3 3 2 3 2 2 2
0 0 0 0 0 0 0 0 0 0 0 0 0 0 0 0 0 0 9 8 8 6 4 1 3 5 5 4 2 3 3 3
0 0 0 0 0 0 0 0 0 0 0 0 0 0 0 0 0 0 5 9 10 8 7 7 7 6 4 5 5 3 4 5
Wind_Speed_500mb
9 8 15 13 38 23 31 27 19 22 60 36 26 34 57 41 50 47 65 66 63 59 55 52 49 45 40 37 34 32 32 36
2 19 21 39 37 33 32 13 12 18 22 25 36 66 48 53 47 59 65 65 64 59 55 51 48 45 41 37 34 30 30 32
10 21 26 39 52 49 32 23 14 8 26 49 57 59 64 62 50 71 69 65 62 58 53 50 48 46 43 38 34 30 28 29
18 28 33 35 59 49 36 43 34 27 49 22 53 69 73 58 48 72 70 67 61 56 52 50 49 47 45 40 36 30 26 26
18 25 24 34 64 31 34 28 3 37 19 51 78 77 67 48 47 53 64 69 64 59 53 51 50 49 47 43 38 32 27 24
19 26 32 42 56 64 48 45 32 10 14 44 77 73 64 56 54 40 52 66 66 61 57 56 54 51 49 45 40 35 29 25
26 30 24 42 21 69 48 21 6 12 48 80 80 77 67 72 58 52 49 62 64 64 61 58 57 56 52 48 43 40 36 33
25 24 22 36 45 58 26 30 15 48 67 81 81 76 78 79 70 62 54 66 69 66 63 61 60 59 58 54 50 45 41 38
43 51 63 49 55 65 33 13 24 35 67 73 78 75 78 77 69 64 55 56 71 68 63 61 62 60 60 56 52 47 43 39
53 64 64 36 49 41 27 36 27 40 50 61 69 72 77 77 78 68 60 50 66 68 66 62 58 59 56 54 51 47 43 41
60 74 79 65 44 47 36 55 44 19 13 66 66 64 67 68 76 75 66 56 51 61 61 59 51 53 52 50 47 42 41 40
60 69 66 51 47 38 64 60 53 23 9 36 60 60 56 56 67 81 76 67 60 52 52 60 52 44 48 48 43 42 39 38
50 40 42 38 34 40 65 58 51 45 21 33 31 30 46 44 43 55 80 80 66 57 47 56 57 48 36 46 40 36 37 34
25 36 44 22 53 44 60 56 53 52 49 33 45 44 40 35 36 38 79 86 59 56 51 52 47 44 43 40 39 32 27 28
30 32 22 27 57 34 69 56 46 52 54 40 39 41 55 52 38 40 73 85 89 85 67 44 54 41 47 44 47 41 32 29
42 34 35 29 53 38 49 51 50 53 60 54 54 56 49 53 51 38 58 94 99 81 63 51 74 68 53 55 51 50 45 41
40 33 44 36 45 41 39 55 45 50 57 52 73 63 68 60 64 61 55 95 101 82 58 66 72 66 72 67 63 55 57 47
41 39 31 31 51 40 35 39 66 55 59 62 64 75 77 79 73 82 72 83 95 96 90 66 74 81 101 80 72 65 57 57
40 36 41 34 40 27 22 48 67 70 76 69 77 86 91 88 79 84 77 75 82 94 86 74 77 75 84 85 71 59 59 61
39 29 27 21 29 31 15 31 33 65 68 72 79 61 92 96 89 72 89 75 94 80 78 83 82 73 66 76 64 63 58 51
Wind_Direction_500mb
162 206 219 248 262 291 307 156 174 101 113 139 160 155 150 197 171 174 165 162 163 163 160 159 157 156 153 146 138 129 127 133
150 242 252 235 262 270 285 253 156 96 98 119 140 148 188 188 180 172 166 164 165 164 163 163 161 161 160 154 147 138 132 136
214 242 256 266 267 282 296 292 131 148 138 138 141 163 176 174 181 173 165 166 166 165 166 165 165 167 165 161 157 149 140 141
223 246 260 264 268 274 271 281 185 135 119 145 153 156 164 173 175 173 163 166 167 166 168 167 168 170 169 167 165 160 152 148
232 251 262 258 266 259 266 276 232 158 120 141 149 159 165 168 165 166 166 166 168 168 169 169 170 171 172 172 170 170 165 159
257 249 256 269 278 279 293 277 198 168 144 156 155 159 155 157 173 164 167 172 169 170 172 172 171 172 172 174 175 176 175 172
237 244 255 276 287 285 303 329 31 99 150 156 153 157 152 163 171 174 177 180 176 174 174 176 174 173 176 179 182 183 184 184
250 255 258 270 277 279 297 300 258 109 126 143 154 160 160 166 172 181 183 186 183 180 178 178 178 179 179 183 188 191 193 194
254 250 258 265 277 284 301 310 229 149 143 153 161 166 166 170 178 191 184 182 185 184 183 183 184 184 184 187 190 195 199 200
255 260 269 269 288 293 304 274 262 220 173 168 169 173 174 176 180 191 194 194 189 188 187 188 186 190 190 191 193 198 200 201
248 248 258 271 264 269 291 283 274 218 264 182 181 179 184 184 186 192 196 197 195 191 188 190 189 193 195 196 199 202 204 201
245 247 245 247 260 269 274 274 264 261 196 165 181 180 191 185 194 189 195 203 200 193 191 195 194 196 205 201 202 204 207 207
256 265 254 259 255 242 252 265 267 249 216 195 202 184 191 189 198 196 194 193 194 196 195 201 197 205 208 214 202 201 203 199
255 254 259 248 250 249 254 260 255 254 254 222 200 218 223 223 222 200 197 182 196 210 189 195 197 205 216 214 205 208 210 199
265 245 247 228 256 241 239 241 244 249 248 242 230 214 214 217 221 238 201 192 186 194 183 191 203 207 214 214 208 216 223 225
256 263 234 243 257 246 218 236 246 250 246 247 244 237 233 225 222 239 215 192 185 199 220 210 208 205 206 211 211 211 213 225
253 242 243 248 254 243 222 219 233 231 230 238 235 238 242 240 235 238 212 196 199 201 213 202 204 212 207 208 206 209 212 214
272 273 278 268 253 249 234 223 216 218 221 233 239 235 236 238 234 228 224 201 199 207 204 203 207 212 213 210 208 211 212 214
245 254 268 266 274 272 264 229 211 212 213 223 226 234 234 225 223 225 215 195 198 189 208 208 197 206 209 215 218 218 219 217
262 260 247 251 262 262 249 278 246 205 201 215 222 239 220 218 224 228 217 196 189 190 196 204 206 209 205 204 204 212 218 218
Wind_Speed_850mb
9 8 15 13 38 23 31 27 19 22 60 36 26 34 57 41 50 47 65 66 63 59 55 52 49 45 40 37 34 32 32 36
2 19 21 39 37 33 32 13 12 18 22 25 36 66 48 53 47 59 65 65 64 59 55 51 48 45 41 37 34 30 30 32
10 21 26 39 52 49 32 23 14 8 26 49 57 59 64 62 50 71 69 65 62 58 53 50 48 46 43 38 34 30 28 29
18 28 33 35 59 49 36 43 34 27 49 22 53 69 73 58 48 72 70 67 61 56 52 50 49 47 45 40 36 30 26 26
18 25 24 34 64 31 34 28 3 37 19 51 78 77 67 48 47 53 64 69 64 59 53 51 50 49 47 43 38 32 27 24
19 26 32 42 56 64 48 45 32 10 14 44 77 73 64 56 54 40 52 66 66 61 57 56 54 51 49 45 40 35 29 25
26 30 24 42 21 69 48 21 6 12 48 80 80 77 67 72 58 52 49 62 64 64 61 58 57 56 52 48 43 40 36 33
25 24 22 36 45 58 26 30 15 48 67 81 81 76 78 79 70 62 54 66 69 66 63 61 60 59 58 54 50 45 41 38
43 51 63 49 55 65 33 13 24 35 67 73 78 75 78 77 69 64 55 56 71 68 63 61 62 60 60 56 52 47 43 39
53 64 64 36 49 41 27 36 27 40 50 61 69 72 77 77 78 68 60 50 66 68 66 62 58 59 56 54 51 47 43 41
60 74 79 65 44 47 36 55 44 19 13 66 66 64 67 68 76 75 66 56 51 61 61 59 51 53 52 50 47 42 41 40
60 69 66 51 47 38 64 60 53 23 9 36 60 60 56 56 67 81 76 67 60 52 52 60 52 44 48 48 43 42 39 38
50 40 42 38 34 40 65 58 51 45 21 33 31 30 46 44 43 55 80 80 66 57 47 56 57 48 36 46 40 36 37 34
25 36 44 22 53 44 60 56 53 52 49 33 45 44 40 35 36 38 79 86 59 56 51 52 47 44 43 40 39 32 27 28
30 32 22 27 57 34 69 56 46 52 54 40 39 41 55 52 38 40 73 85 89 85 67 44 54 41 47 44 47 41 32 29
42 34 35 29 53 38 49 51 50 53 60 54 54 56 49 53 51 38 58 94 99 81 63 51 74 68 53 55 51 50 45 41
40 33 44 36 45 41 39 55 45 50 57 52 73 63 68 60 64 61 55 95 101 82 58 66 72 66 72 67 63 55 57 47
41 39 31 31 51 40 35 39 66 55 59 62 64 75 77 79 73 82 72 83 95 96 90 66 74 81 101 80 72 65 57 57
40 36 41 34 40 27 22 48 67 70 76 69 77 86 91 88 79 84 77 75 82 94 86 74 77 75 84 85 71 59 59 61
39 29 27 21 29 31 15 31 33 65 68 72 79 61 92 96 89 72 89 75 94 80 78 83 82 73 66 76 64 63 58 51
Wind_Direction_850mb
162 206 219 248 262 291 307 156 174 101 113 139 160 155 150 197 171 174 165 162 163 163 160 159 157 156 153 146 138 129 127 133
150 242 252 235 262 270 285 253 156 96 98 119 140 148 188 188 180 172 166 164 165 164 163 163 161 161 160 154 147 138 132 136
214 242 256 266 267 282 296 292 131 148 138 138 141 163 176 174 181 173 165 166 166 165 166 165 165 167 165 161 157 149 140 141
223 246 260 264 268 274 271 281 185 135 119 145 153 156 164 173 175 173 163 166 167 166 168 167 168 170 169 167 165 160 152 148
232 251 262 258 266 259 266 276 232 158 120 141 149 159 165 168 165 166 166 166 168 168 169 169 170 171 172 172 170 170 165 159
257 249 256 269 278 279 293 277 198 168 144 156 155 159 155 157 173 164 167 172 169 170 172 172 171 172 172 174 175 176 175 172
237 244 255 276 287 285 303 329 31 99 150 156 153 157 152 163 171 174 177 180 176 174 174 176 174 173 176 179 182 183 184 184
250 255 258 270 277 279 297 300 258 109 126 143 154 160 160 166 172 181 183 186 183 180 178 178 178 179 179 183 188 191 193 194
254 250 258 265 277 284 301 310 229 149 143 153 161 166 166 170 178 191 184 182 185 184 183 183 184 184 184 187 190 195 199 200
255 260 269 269 288 293 304 274 262 220 173 168 169 173 174 176 180 191 194 194 189 188 187 188 186 190 190 191 193 198 200 201
248 248 258 271 264 269 291 283 274 218 264 182 181 179 184 184 186 192 196 197 195 191 188 190 189 193 195 196 199 202 204 201
245 247 245 247 260 269 274 274 264 261 196 165 181 180 191 185 194 189 195 203 200 193 191 195 194 196 205 201 202 204 207 207
256 265 254 259 255 242 252 265 267 249 216 195 202 184 191 189 198 196 194 193 194 196 195 201 197 205 208 214 202 201 203 199
255 254 259 248 250 249 254 260 255 254 254 222 200 218 223 223 222 200 197 182 196 210 189 195 197 205 216 214 205 208 210 199
265 245 247 228 256 241 239 241 244 249 248 242 230 214 214 217 221 238 201 192 186 194 183 191 203 207 214 214 208 216 223 225
256 263 234 243 257 246 218 236 246 250 246 247 244 237 233 225 222 239 215 192 185 199 220 210 208 205 206 211 211 211 213 225
253 242 243 248 254 243 222 219 233 231 230 238 235 238 242 240 235 238 212 196 199 201 213 202 204 212 207 208 206 209 212 214
272 273 278 268 253 249 234 223 216 218 221 233 239 235 236 238 234 228 224 201 199 207 204 203 207 212 213 210 208 211 212 214
245 254 268 266 274 272 264 229 211 212 213 223 226 234 234 225 223 225 215 195 198 189 208 208 197 206 209 215 218 218 219 217
262 260 247 251 262 262 249 278 246 205 201 215 222 239 220 218 224 228 217 196 189 190 196 204 206 209 205 204 204 212 218 218